Lumberton, NC

8:51 AM EDT on July 21, 2017 (GMT -0400)
Lumberton Municipal

Weather History for KLBT - December, 2012

Change the Weather History Date:

Monday, December 24, 2012

  Actual Average Record
Temperature  
Mean Temperature 51 °F 44 °F  
Max Temperature 57 °F 55 °F 80 °F (2015)
Min Temperature 45 °F 35 °F 17 °F (2000)
Degree Days  
Heating Degree Days 14 21  
Month to date heating degree days 269 437  
Since 1 July heating degree days 867 903  
Cooling Degree Days 0 0  
Month to date cooling degree days 2 0  
Year to date cooling degree days 2055 1907  
Growing Degree Days 1 (Base 50)    
Moisture  
Dew Point 38 °F    
Average Humidity 72    
Maximum Humidity 100    
Minimum Humidity 43    
Precipitation  
Precipitation 0.06 in 0.08 in 1.35 in (2014)
Month to date precipitation 2.03 2.39  
Year to date precipitation 42.71 43.02  
Sea Level Pressure  
Sea Level Pressure 30.00 in    
Wind  
Wind Speed 3 mph (SSW)    
Max Wind Speed 9 mph    
Max Gust Speed 13 mph    
Visibility 10 miles    
Events Rain    
T = Trace of Precipitation, MM = Missing Value Source: NWS Daily Summary

Daily Weather History Graph

Daily Weather History Graph

Search for Another Location

Airport or City:

Trip Planner

Search our weather history database for the weather conditions in past years. The results will help you decide how hot, cold, wet, or windy it might be!

Date:

Astronomy

Dec. 24, 2012 Rise Set
Actual Time 7:20 AM EST 5:11 PM EST
Civil Twilight 6:52 AM EST 5:39 PM EST
Nautical Twilight 6:21 AM EST 6:10 PM EST
Astronomical Twilight 5:50 AM EST 6:41 PM EST
Moon 2:34 PM EST (12/24) 4:01 AM EST (12/24)
Length of Visible Light 10h 46m
Length of Day
9h 50m
Waxing Gibbous, 88% of the Moon is Illuminated
Dec 24
Waxing Gibbous
Dec 28
Full
Jan 4
Last Quarter
Jan 11
New
Jan 18
First Quarter

Hourly Weather History & Observations

Time (EST) Temp. Windchill Dew Point Humidity Pressure Visibility Wind Dir Wind Speed Gust Speed Precip Events Conditions
12:54 AM 45.0 °F - 34.0 °F 65% 30.07 in 10.0 mi Calm Calm - N/A   Overcast
1:54 AM 48.0 °F - 33.1 °F 56% 30.06 in 2.5 mi Calm Calm - N/A   Haze
2:02 AM 48.2 °F - 33.8 °F 58% 30.06 in 10.0 mi SSW 3.5 mph - N/A   Mostly Cloudy
2:54 AM 46.9 °F - 33.1 °F 59% 30.05 in 10.0 mi South 4.6 mph - N/A   Scattered Clouds
3:54 AM 46.9 °F - 34.0 °F 61% 30.04 in 10.0 mi South 4.6 mph - N/A   Overcast
4:54 AM 48.0 °F - 33.1 °F 56% 30.04 in 10.0 mi SW 8.1 mph - N/A   Overcast
5:54 AM 48.0 °F - 33.1 °F 56% 30.04 in 10.0 mi SSW 3.5 mph - N/A   Overcast
6:54 AM 48.0 °F - 34.0 °F 58% 30.04 in 10.0 mi Calm Calm - N/A   Overcast
7:54 AM 46.0 °F - 36.0 °F 68% 30.05 in 10.0 mi Calm Calm - N/A   Mostly Cloudy
8:54 AM 48.0 °F - 36.0 °F 63% 30.05 in 10.0 mi South 3.5 mph - N/A   Overcast
9:54 AM 50.0 °F - 36.0 °F 59% 30.06 in 10.0 mi SSW 4.6 mph - N/A   Mostly Cloudy
10:54 AM 53.1 °F - 35.1 °F 50% 30.05 in 10.0 mi SSW 5.8 mph - N/A   Scattered Clouds
11:54 AM 55.0 °F - 34.0 °F 45% 30.01 in 10.0 mi SSW 4.6 mph - N/A   Clear
12:54 PM 55.9 °F - 34.0 °F 44% 29.98 in 10.0 mi SSW 5.8 mph - N/A   Clear
1:54 PM 57.0 °F - 35.1 °F 44% 29.97 in 10.0 mi SW 4.6 mph - N/A   Mostly Cloudy
2:54 PM 55.9 °F - 35.1 °F 45% 29.96 in 10.0 mi SW 4.6 mph - N/A   Overcast
3:54 PM 53.1 °F - 37.9 °F 57% 29.96 in 8.0 mi SSW 3.5 mph - 0.00 in Rain Light Rain
4:54 PM 50.0 °F - 43.0 °F 77% 29.95 in 7.0 mi South 3.5 mph - 0.02 in Rain Light Rain
5:54 PM 48.0 °F - 46.9 °F 96% 29.95 in 9.0 mi Calm Calm - 0.03 in   Overcast
6:54 PM 48.0 °F - 43.0 °F 83% 29.94 in 10.0 mi SW 3.5 mph - 0.01 in   Scattered Clouds
7:54 PM 48.9 °F - 43.0 °F 80% 29.94 in 10.0 mi SW 4.6 mph - N/A   Overcast
8:54 PM 48.0 °F - 45.0 °F 89% 29.93 in 10.0 mi Calm Calm - N/A   Overcast
9:54 PM 45.0 °F 43.5 °F 44.1 °F 97% 29.94 in 10.0 mi South 3.5 mph - N/A   Partly Cloudy
10:41 PM 46.4 °F 45.2 °F 44.6 °F 93% 29.96 in 10.0 mi WNW 3.5 mph - N/A   Overcast
10:54 PM 46.9 °F - 45.0 °F 93% 29.96 in 10.0 mi Calm Calm - N/A   Overcast
11:18 PM 46.4 °F - 44.6 °F 93% 29.95 in 10.0 mi Calm Calm - N/A   Overcast
11:50 PM 48.2 °F - 44.6 °F 87% 29.95 in 10.0 mi Calm Calm - N/A   Overcast
11:54 PM 48.0 °F - 45.0 °F 89% 29.95 in 10.0 mi Calm Calm - N/A   Overcast